Tracking 28790 objects as of 19-Apr-2024
HD Live streaming from Space Station
objects crossing your sky now

OSCAR 23 (KITSAT 1)

Track OSCAR 23 (KITSAT 1) now!
10-day predictions
OSCAR 23 (KITSAT 1) is classified as:


NORAD ID: 22077
Int'l Code: 1992-052B
Perigee: 1,310.5 km
Apogee: 1,334.1 km
Inclination: 66.1 °
Period: 111.9 minutes
Semi major axis: 7693 km
RCS: 0.384 m2 (medium)
Launch date: August 10, 1992
Source: South Korea (SKOR)
Launch site: FRENCH GUIANA (FRGUI)

Uplink (MHz): 145.900/145.850
Downlink (MHz): 435.175
Beacon (MHz):
Mode: 9600bps FSK
Call sign: HL01-11 12
Status: Inactive

Your satellite tracking list
Your tracking list is empty




NASA's NSSDC Master Catalog

Two Line Element Set (TLE):
1 22077U 92052B   24110.17615666 -.00000015  00000-0  18790-3 0  9997
2 22077  66.0817 134.0327 0015320 286.0298 147.9400 12.86573427488734
Source of the keplerian elements: AFSPC